User: anonymous   Login
Location: Caltech
(34.1382°N, 118.1253°W)
Time: 22:19:20
(UTC-07:00)
Language:

Cosmos 1975 - Orbit

View from above orbital plane
View from above orbital plane
View from above satellite
View from above satellite

Ground track
Ground track

The orbit data is extracted from the following two-line orbital elements,

1 19573U 88093A   17115.84959628 +.00001487 +00000-0 +10501-3 0  9999
2 19573 082.5229 036.1170 0015874 113.8780 246.4111 15.04125692530806
Epoch (UTC): 25 April 2017 20:23:25
Eccentricity: 0.0015874
inclination: 82.5229°
perigee height: 543 km
apogee height: 565 km
right ascension of ascending node: 36.1170°
argument of perigee: 113.8780°
revolutions per day: 15.04125692
mean anomaly at epoch: 246.4111°
orbit number at epoch: 53080

The dashed part of the orbit path shows where the satellite is in the earth's shadow,  

DLR